This demonstration page uses our WeatherBlox Daily Observations layout. Learn more.

Left ArrowRight Arrow

Hourly Observations for July 17, 2016

Temp ( °F °C ) Dew Point ( °F °C ) Humidity (%) Winds ( mph kmh ) Pressure ( in mb ) Visibility ( mi km ) Precip ( " mm )
12:51 am 00:51 Clear 86 30 50 10 29 29 SSE 6 9 29.77 1008 10 16 0.00 0.00
1:51 am 01:51 Clear 84 28.9 50 10 31 31 Calm 29.77 1008 10 16 0.00 0.00
2:51 am 02:51 Clear 83 28.3 50 10 32 32 Calm 29.76 1008 10 16 0.00 0.00
3:51 am 03:51 Clear 82 27.8 50 10 33 33 ENE 3 6 29.77 1008 10 16 0.00 0.00
4:51 am 04:51 Clear 82 27.8 50 10 33 33 SE 3 6 29.79 1009 10 16 0.00 0.00
5:51 am 05:51 Sunny 80 26.7 52 11.1 38 38 Calm 29.82 1010 10 16 0.00 0.00
6:51 am 06:51 Sunny 82 27.8 52 11.1 35 35 S 6 9 29.83 1010 10 16 0.00 0.00
7:51 am 07:51 Sunny 84 28.9 53 11.7 34 34 S 6 9 29.86 1011 10 16 0.00 0.00
8:51 am 08:51 Sunny 86 30 51 10.6 30 30 VRB 5 7 29.87 1012 10 16 0.00 0.00
9:51 am 09:51 Sunny 88 31.1 51 10.6 28 28 NW 3 6 29.89 1012 10 16 0.00 0.00
10:51 am 10:51 Mostly Sunny 94 34.4 51 10.6 23 23 WNW 12 19 29.88 1012 10 16 0.00 0.00
11:51 am 11:51 Sunny 96 35.6 51 10.6 22 22 WNW 16 26 29.85 1011 10 16 0.00 0.00
12:51 pm 12:51 Sunny 98 36.7 51 10.6 20 20 WNW 21 33 29.82 1010 10 16 0.00 0.00
1:51 pm 13:51 Sunny 99 37.2 50 10 19 19 WNW 12 19 29.79 1009 10 16 0.00 0.00
2:51 pm 14:51 Sunny 101 38.3 48 8.9 17 17 NW 15 24 29.76 1008 10 16 0.00 0.00
3:51 pm 15:51 Sunny 102 38.9 48 8.9 16 16 NW 15 24 29.74 1007 10 16 0.00 0.00
4:51 pm 16:51 Sunny 101 38.3 48 8.9 17 17 W 15 24 29.72 1007 10 16 0.00 0.00
5:51 pm 17:51 Mostly Sunny 97 36.1 50 10 20 20 NNE 10 17 29.73 1007 10 16 0.00 0.00
6:51 pm 18:51 Sunny 94 34.4 49 9.4 21 21 NNE 16 26 29.75 1008 10 16 0.00 0.00
7:51 pm 19:51 Clear 92 33.3 50 10 24 24 NNE 9 15 29.79 1009 10 16 0.00 0.00
8:51 pm 20:51 Clear 86 30 54 12.2 33 33 WNW 8 13 29.82 1010 10 16 0.00 0.00
9:51 pm 21:51 Clear 85 29.4 54 12.2 35 35 S 7 11 29.85 1011 10 16 0.00 0.00
10:51 pm 22:51 Clear 83 28.3 54 12.2 37 37 E 7 11 29.85 1011 10 16 0.00 0.00
11:39 pm 23:39 Mostly Cloudy with Haze 80 26.7 59 15 49 49 SSE 31 50 29.91 1013 6 10 0.00 0.00
11:51 pm 23:51 Mostly Cloudy 79 26.1 60 15.6 52 52 SE 26 43 29.94 1014 10 16 0.00 0.00

Powered by AerisWeather